FW9998 Weather Reports


Display with metric or nautical units.
time (UTC)temp
F
wind
direction
speed
MPH
gust
MPH
rain 1hr
in
rain 24hr
in
rain mn
in
humidity
%
barometer
mb
20260505035323 57 167 6.0 7.0 0.00 0.00 0.00 62 1010.5
20260505034821 58 164 2.0 3.0 0.00 0.00 0.00 62 1010.8
20260505034317 58 165 6.0 8.0 0.00 0.00 0.00 61 1010.8
20260505033814 58 223 5.0 6.0 0.00 0.00 0.00 61 1010.8
20260505033311 58 175 4.0 4.0 0.00 0.00 0.00 60 1010.8
20260505032810 58 177 8.0 13.0 0.00 0.00 0.00 60 1010.8
20260505032305 58 187 7.0 9.0 0.00 0.00 0.00 60 1010.5
20260505031803 58 217 7.0 10.0 0.00 0.00 0.00 59 1010.8
20260505031259 58 188 7.0 9.0 0.00 0.00 0.00 59 1010.8
20260505030756 58 234 5.0 6.0 0.00 0.00 0.00 59 1010.8
20260505030252 59 198 6.0 8.0 0.00 0.00 0.00 58 1010.8
20260505025747 59 184 5.0 7.0 0.00 0.00 0.00 57 1010.8
20260505025246 59 143 6.0 8.0 0.00 0.00 0.00 57 1010.5
20260505024744 59 82 4.0 4.0 0.00 0.00 0.00 56 1010.5
20260505024241 59 203 2.0 4.0 0.00 0.00 0.00 56 1010.8
20260505023738 59 174 4.0 6.0 0.00 0.00 0.00 55 1010.8
20260505023235 59 220 3.0 4.0 0.00 0.00 0.00 55 1010.8
20260505022733 59 150 4.0 4.0 0.00 0.00 0.00 54 1010.8
20260505022229 60 214 6.0 8.0 0.00 0.00 0.00 54 1010.8
20260505021726 60 203 3.0 6.0 0.00 0.00 0.00 54 1010.8
20260505021223 60 162 2.0 3.0 0.00 0.00 0.00 53 1010.8
20260505020719 60 224 6.0 7.0 0.00 0.00 0.00 52 1010.8
20260505020214 60 187 7.0 8.0 0.00 0.00 0.00 52 1010.5
20260505015712 60 212 4.0 7.0 0.00 0.00 0.00 51 1010.5
20260505015209 61 187 8.0 10.0 0.00 0.00 0.00 51 1010.8
20260505014706 61 289 4.0 4.0 0.00 0.00 0.00 50 1010.8
20260505014203 61 180 4.0 7.0 0.00 0.00 0.00 50 1010.5
20260505013700 61 185 4.0 6.0 0.00 0.00 0.00 50 1010.5
20260505013157 61 225 6.0 8.0 0.00 0.00 0.00 50 1010.5
20260505012655 61 216 5.0 8.0 0.00 0.00 0.00 49 1010.5
20260505012152 61 148 7.0 9.0 0.00 0.00 0.00 49 1010.5
20260505011652 62 201 5.0 7.0 0.00 0.00 0.00 49 1010.1
20260505011150 62 228 3.0 3.0 0.00 0.00 0.00 48 1010.1
20260505010645 62 230 4.0 6.0 0.00 0.00 0.00 48 1010.1
20260505010142 62 199 5.0 7.0 0.00 0.00 0.00 47 1009.8
20260505005638 62 211 4.0 6.0 0.00 0.00 0.00 47 1009.8
20260505005135 63 143 4.0 6.0 0.00 0.00 0.00 46 1010.1
20260505004633 63 173 3.0 4.0 0.00 0.00 0.00 46 1009.8
20260505004129 63 125 5.0 6.0 0.00 0.00 0.00 46 1009.4
20260505003626 63 290 4.0 6.0 0.00 0.00 0.00 46 1009.4
20260505003124 63 185 4.0 6.0 0.00 0.00 0.00 46 1009.4
20260505002619 64 201 5.0 8.0 0.00 0.00 0.00 45 1009.1
20260505002118 64 216 6.0 10.0 0.00 0.00 0.00 45 1008.8
20260505001615 64 84 7.0 9.0 0.00 0.00 0.00 45 1008.8
20260505001113 64 230 8.0 10.0 0.00 0.00 0.00 45 1008.8
20260505000609 65 199 6.0 9.0 0.00 0.00 0.00 45 1008.8
20260505000107 65 236 7.0 11.0 0.00 0.00 0.00 45 1008.4
20260504235603 65 260 4.0 6.0 0.00 0.00 0.00 44 1008.4
20260504235100 65 228 6.0 7.0 0.00 0.00 0.00 44 1008.4
20260504234557 66 211 6.0 8.0 0.00 0.00 0.00 44 1008.1
20260504234054 66 136 7.0 8.0 0.00 0.00 0.00 44 1008.4
20260504233549 66 203 4.0 7.0 0.00 0.00 0.00 43 1008.1
20260504233046 66 194 8.0 10.0 0.00 0.00 0.00 43 1008.1
20260504232543 66 161 8.0 13.0 0.00 0.00 0.00 43 1007.8
20260504232041 67 257 6.0 8.0 0.00 0.00 0.00 42 1007.8
20260504231537 67 171 5.0 9.0 0.00 0.00 0.00 42 1007.8
20260504231033 67 213 9.0 11.0 0.00 0.00 0.00 41 1007.8
20260504230530 68 194 6.0 9.0 0.00 0.00 0.00 40 1007.4
20260504230029 68 212 9.0 14.0 0.00 0.00 0.00 39 1007.1
20260504225526 68 222 7.0 9.0 0.00 0.00 0.00 38 1007.1
20260504225023 69 258 8.0 10.0 0.00 0.00 0.00 38 1007.1
20260504224519 69 265 3.0 4.0 0.00 0.00 0.00 38 1007.1
20260504224017 69 241 9.0 11.0 0.00 0.00 0.00 37 1007.1
20260504223513 69 144 6.0 8.0 0.00 0.00 0.00 37 1007.1
20260504223009 69 143 5.0 9.0 0.00 0.00 0.00 37 1006.7
20260504222506 69 220 7.0 9.0 0.00 0.00 0.00 36 1007.1
20260504222004 70 243 9.0 13.0 0.00 0.00 0.00 35 1006.7
20260504221500 71 225 9.0 11.0 0.00 0.00 0.00 32 1006.7
20260504220957 71 246 11.0 14.0 0.00 0.00 0.00 31 1006.7
20260504220454 72 153 2.0 3.0 0.00 0.00 0.00 31 1006.7
20260504215951 73 126 2.0 3.0 0.00 0.00 0.00 31 1006.7
20260504215447 73 225 2.0 3.0 0.00 0.00 0.00 30 1006.7
20260504214944 73 219 4.0 4.0 0.00 0.00 0.00 30 1006.7
20260504214441 72 152 4.0 7.0 0.00 0.00 0.00 30 1006.7
20260504213937 72 276 4.0 7.0 0.00 0.00 0.00 30 1007.1
20260504213433 73 201 2.0 3.0 0.00 0.00 0.00 30 1006.7
20260504212931 73 203 3.0 3.0 0.00 0.00 0.00 29 1006.7
20260504212426 73 194 5.0 7.0 0.00 0.00 0.00 29 1006.7
20260504211925 73 199 4.0 6.0 0.00 0.00 0.00 30 1006.7
20260504211420 73 146 5.0 7.0 0.00 0.00 0.00 29 1006.7
20260504210918 74 136 2.0 2.0 0.00 0.00 0.00 29 1006.7
20260504210415 74 164 2.0 2.0 0.00 0.00 0.00 29 1006.7
20260504205912 73 205 3.0 3.0 0.00 0.00 0.00 29 1006.7
20260504205410 74 245 5.0 9.0 0.00 0.00 0.00 28 1006.7
20260504204908 73 243 4.0 8.0 0.00 0.00 0.00 29 1007.1
20260504204406 73 225 6.0 7.0 0.00 0.00 0.00 28 1006.7
20260504203905 73 169 4.0 7.0 0.00 0.00 0.00 29 1007.1
20260504203401 73 315 3.0 7.0 0.00 0.00 0.00 29 1006.7
20260504202857 73 260 2.0 3.0 0.00 0.00 0.00 28 1006.7
20260504202354 73 198 3.0 6.0 0.00 0.00 0.00 28 1006.7
20260504201851 73 306 2.0 2.0 0.00 0.00 0.00 28 1006.7
20260504201349 74 214 4.0 6.0 0.00 0.00 0.00 28 1006.7
20260504200846 73 234 4.0 6.0 0.00 0.00 0.00 27 1007.1
20260504200342 73 272 9.0 13.0 0.00 0.00 0.00 27 1007.1
20260504195839 73 188 17.0 22.0 0.00 0.00 0.00 27 1007.1
20260504195334 72 182 11.0 19.0 0.00 0.00 0.00 27 1007.4
20260504194831 72 290 24.0 26.0 0.00 0.00 0.00 27 1007.1
20260504194327 73 137 2.0 4.0 0.00 0.00 0.00 27 1007.1
20260504193823 73 200 4.0 7.0 0.00 0.00 0.00 27 1007.1
20260504193321 73 205 8.0 11.0 0.00 0.00 0.00 27 1006.7
20260504192820 73 127 2.0 3.0 0.00 0.00 0.00 27 1007.1
20260504192317 73 236 7.0 10.0 0.00 0.00 0.00 26 1007.1
20260504191815 73 95 8.0 14.0 0.00 0.00 0.00 26 1006.7
20260504191313 73 203 2.0 4.0 0.00 0.00 0.00 26 1007.1
20260504190808 72 275 5.0 7.0 0.00 0.00 0.00 27 1007.1
20260504190304 72 274 11.0 15.0 0.00 0.00 0.00 27 1007.4
20260504185801 73 201 6.0 7.0 0.00 0.00 0.00 26 1007.4
20260504185258 73 247 8.0 13.0 0.00 0.00 0.00 26 1007.4
20260504184754 71 196 12.0 14.0 0.00 0.00 0.00 27 1007.1
20260504184250 73 188 9.0 14.0 0.00 0.00 0.00 26 1007.4
20260504183746 73 214 5.0 7.0 0.00 0.00 0.00 26 1007.4
20260504183243 73 206 9.0 11.0 0.00 0.00 0.00 27 1007.4
20260504182741 73 264 4.0 6.0 0.00 0.00 0.00 27 1007.4
20260504182238 72 330 8.0 11.0 0.00 0.00 0.00 27 1007.4
20260504181736 71 204 9.0 14.0 0.00 0.00 0.00 28 1007.4
20260504181233 72 256 9.0 14.0 0.00 0.00 0.00 27 1007.4
20260504180732 72 237 7.0 9.0 0.00 0.00 0.00 27 1007.4
20260504180231 71 222 4.0 8.0 0.00 0.00 0.00 29 1007.8
20260504175728 71 236 5.0 9.0 0.00 0.00 0.00 29 1007.8
20260504175224 71 202 6.0 7.0 0.00 0.00 0.00 28 1007.8
20260504174722 71 256 9.0 11.0 0.00 0.00 0.00 27 1008.1
20260504174220 72 152 8.0 13.0 0.00 0.00 0.00 28 1007.8
20260504173716 71 311 5.0 8.0 0.00 0.00 0.00 28 1007.8
20260504173213 71 246 3.0 4.0 0.00 0.00 0.00 28 1008.1
20260504172709 71 229 5.0 8.0 0.00 0.00 0.00 28 1007.8
20260504172206 70 256 3.0 3.0 0.00 0.00 0.00 29 1007.8
20260504171703 70 228 8.0 9.0 0.00 0.00 0.00 30 1008.1
20260504171200 69 228 5.0 7.0 0.00 0.00 0.00 30 1008.1
20260504170656 69 179 3.0 4.0 0.00 0.00 0.00 30 1008.4
20260504170154 70 213 6.0 8.0 0.00 0.00 0.00 30 1008.1
20260504160112 68 171 5.0 8.0 0.00 0.00 0.00 31 1008.8
20260504151039 67 189 3.0 4.0 0.00 0.00 0.00 33 1009.1
20260504150537 67 174 4.0 6.0 0.00 0.00 0.00 33 1009.1
20260504141003 64 223 3.0 4.0 0.00 0.00 0.00 37 1009.8
20260504140459 64 178 2.0 3.0 0.00 0.00 0.00 37 1009.8
20260504130424 59 175 2.0 2.0 0.00 0.00 0.00 43 1010.8
20260504110311 49 189 2.0 3.0 0.00 0.00 0.00 54 1011.1
20260504100229 47 134 0.0 0.0 0.00 0.00 0.00 57 1011.1
20260504081622 47 148 0.0 1.0 0.00 0.00 0.00 56 1010.8
20260504081118 47 164 1.0 1.0 0.00 0.00 0.00 55 1010.8
20260504080614 47 179 1.0 1.0 0.00 0.00 0.00 55 1011.1
20260504080111 47 134 0.0 0.0 0.00 0.00 0.00 56 1011.1
20260504050427 42 197 1.0 1.0 0.00 0.00 0.00 63 1010.8
20260504045924 42 161 1.0 1.0 0.00 0.00 0.00 64 1010.8
20260504045420 43 157 0.0 0.0 0.00 0.00 0.00 62 1010.8
20260504044916 43 148 0.0 0.0 0.00 0.00 0.00 61 1010.5
20260504044414 43 133 0.0 0.0 0.00 0.00 0.00 61 1010.8
20260504043911 43 152 1.0 2.0 0.00 0.00 0.00 61 1010.8
20260504043408 43 133 0.0 0.0 0.00 0.00 0.00 62 1010.8
20260504042905 43 127 0.0 0.0 0.00 0.00 0.00 61 1010.8
20260504042402 43 133 0.0 0.0 0.00 0.00 0.00 62 1010.8
20260504041858 43 137 0.0 0.0 0.00 0.00 0.00 62 1010.8
20260504041354 42 162 0.0 0.0 0.00 0.00 0.00 63 1010.8
20260504040850 42 141 0.0 0.0 0.00 0.00 0.00 64 1010.8
20260504040348 42 152 0.0 0.0 0.00 0.00 0.00 63 1010.5
20260504035844 42 152 0.0 0.0 0.00 0.00 0.00 64 1010.8